{"data":{"norad_id":65246,"intl_designator":"2025-179M","name":"STARLINK-34959","alt_names":[],"object_type":"PAYLOAD","status":"ACTIVE","operator":null,"country":"US","launch_date":"2025-08-18","launch_site_code":"AFWTR","launch_vehicle":null,"mission":null,"orbit_class":"UNKNOWN","rcs_meters":null,"size_class":null,"mass_kg":null,"dimensions":null,"purposes":["comms"],"wikipedia_slug":null,"has_3d_model":false,"image_url":null,"decayed_at":null,"tle_current":{"epoch":"2026-05-25T02:53:15.415584Z","epoch_age_seconds":64617,"freshness":"FRESH","line1":"1 65246U 25179M   26145.12031731  .00003135  00000+0  22117-3 0  9990","line2":"2 65246  97.4475 187.8513 0002080  98.1724 261.9739 15.05657595 43322","mean_motion":15.05657595,"eccentricity":0.000208,"inclination_deg":97.4475,"raan_deg":187.8513,"arg_perigee_deg":98.1724,"mean_anomaly_deg":261.9739,"bstar":0.00022117,"rev_number":4332,"period_min":95.639274479268,"perigee_km":548.04691125722,"apogee_km":550.92880319782,"semimajor_km":6927.6248572275,"source":"CELESTRAK","updated_at":"2026-05-25T13:38:20.726158Z"}}}